Location: Unspecified
(0.0000°N, 0.0000°E)
Time: 23:09:08
(UTC+00:00)

X-37B - Pass Details

Date: 22 October 2020
Orbit: 382 x 392 km, 45.0° (Epoch: 15 October)

Event Time Altitude Azimuth Distance (km) Brightness Sun altitude
Rises 19:01:23 0° 312° (NW) 2,249 5.0 -18.9°
Reaches altitude 10° 19:03:28 10° 308° (NW) 1,396 3.9 -19.4°
Maximum altitude 19:06:34 58° 228° (SW) 450 1.1 -20.1°
Enters shadow 19:07:05 49° 184° (S) 500 1.1 -20.2°
